Theta_e
325 325 325 327 327 327 326 326 325 326 326 323 317 311 309 309 308 307 305 305 301 294 293 292 292 291 291 291 290 290 289 288
320 320 320 327 327 325 326 325 324 321 318 313 310 308 307 307 306 305 302 296 295 293 291 291 290 291 290 290 289 288 287 287
318 318 316 321 324 323 323 323 321 311 308 308 307 307 307 305 302 301 297 296 292 291 290 290 290 290 289 288 288 287 286 286
315 314 313 315 317 320 318 318 311 310 307 306 305 305 304 302 302 299 296 291 290 290 290 290 289 288 288 287 287 286 286 285
306 308 308 310 310 310 309 309 309 307 307 305 304 303 302 300 297 293 290 290 290 289 289 288 288 287 288 287 286 286 285 284
299 301 303 304 305 306 305 304 307 306 305 304 302 300 299 294 292 290 290 290 289 289 289 288 288 288 287 286 285 284 284 284
300 300 301 303 303 304 305 305 306 305 304 302 301 299 293 291 290 289 289 289 289 289 288 288 288 287 286 285 285 285 284 283
300 300 301 302 304 306 305 304 304 302 302 301 297 292 290 290 290 289 289 289 289 289 288 288 287 286 286 285 285 284 284 284
300 301 303 305 306 306 306 304 303 303 300 294 290 290 290 290 289 289 289 289 289 288 288 287 287 287 286 285 285 285 284 282
303 304 304 305 306 306 304 304 303 301 291 290 290 290 290 289 289 289 289 289 288 288 288 287 286 286 285 285 285 282 281 281
303 304 304 303 304 303 302 302 296 291 290 290 290 289 289 289 289 288 290 291 288 287 286 286 285 285 285 283 282 281 280 279
304 303 303 302 302 300 297 292 291 290 290 289 289 288 289 289 291 291 292 288 288 286 286 285 285 284 283 282 281 281 280 281
303 303 303 303 301 298 294 291 290 289 289 288 288 288 292 294 295 294 290 288 286 286 285 284 283 283 282 282 283 281 281 279
303 303 302 301 301 301 296 292 289 289 288 288 287 290 294 294 294 293 288 286 285 285 284 283 283 283 283 283 283 281 280 278
301 302 301 300 299 299 298 294 297 289 288 288 287 289 291 291 293 288 285 285 285 284 284 283 284 284 283 281 281 279 278 277
302 301 301 299 299 298 298 297 297 292 292 291 290 290 292 293 288 285 285 284 284 284 284 284 283 282 281 280 279 278 277 275
302 301 300 300 299 298 297 297 296 295 294 293 292 292 290 286 285 285 284 284 285 285 285 283 282 281 280 278 277 275 274 273
301 300 300 299 299 298 297 295 295 295 294 293 289 287 285 285 284 284 285 285 286 284 282 282 281 279 278 276 275 273 272 272
300 300 299 298 298 297 295 295 294 293 289 289 288 285 285 285 285 284 285 284 283 282 282 281 279 277 275 274 273 272 271 270
300 299 297 297 297 296 295 294 291 289 288 286 285 285 285 285 285 285 283 282 282 281 279 277 275 274 273 272 271 271 270 270
Wind_Speed
42 48 51 49 48 45 40 39 38 37 38 38 35 28 27 27 28 26 23 20 18 15 14 12 10 8 6 5 4 4 4 4
35 39 44 47 46 42 41 37 35 33 34 31 28 33 32 32 28 24 21 18 16 14 13 11 9 7 5 4 3 3 4 6
36 39 40 44 45 43 40 36 33 28 25 29 31 34 33 30 26 24 21 18 17 15 12 10 7 5 4 3 3 4 5 6
35 36 39 40 40 40 35 32 28 27 31 37 36 35 33 27 26 21 18 19 17 14 10 8 7 5 4 3 2 4 6 8
32 35 35 36 36 35 31 32 34 38 38 38 37 30 28 26 22 20 18 16 14 12 9 7 5 3 2 2 3 5 7 9
28 34 34 35 34 36 40 43 45 42 41 38 32 27 25 23 21 20 18 15 12 10 7 5 3 1 1 3 5 6 8 10
27 31 35 38 42 44 43 40 40 40 37 30 29 27 23 23 22 19 16 13 10 8 5 3 1 1 3 4 6 8 9 11
29 32 36 39 41 41 39 38 37 30 29 30 26 26 25 22 19 17 14 11 8 5 3 2 1 2 4 6 8 9 11 14
32 37 38 37 37 37 37 37 35 33 29 28 27 25 22 19 17 15 12 9 6 3 3 3 4 6 7 7 9 12 14 15
30 31 32 32 33 33 36 35 31 25 27 26 24 21 19 17 15 12 10 6 3 2 3 4 6 8 9 11 12 13 15 17
25 26 26 28 29 31 32 31 28 27 26 23 21 19 18 15 13 11 7 4 3 3 4 6 7 10 12 13 13 14 16 17
19 21 23 25 26 27 28 27 25 23 22 22 20 18 15 14 11 8 4 2 4 4 5 8 9 11 13 13 14 15 17 19
18 18 19 20 21 25 25 22 21 22 21 20 19 17 15 11 6 3 3 4 4 6 7 8 9 11 13 15 17 17 19 18
16 19 18 17 17 21 24 21 20 19 19 18 18 16 12 6 0 2 1 4 5 6 8 9 10 11 16 17 18 19 18 17
13 15 17 15 16 15 20 21 19 18 16 15 14 12 11 7 3 1 3 5 6 7 8 10 12 14 16 18 19 18 19 20
13 13 14 14 13 13 14 15 17 19 18 18 17 14 8 4 2 3 5 6 6 8 9 12 13 15 17 19 19 20 19 20
13 13 15 15 14 14 12 10 10 10 11 11 10 7 4 4 6 5 6 7 8 10 12 13 14 17 18 18 19 20 22 20
14 14 17 17 17 15 13 12 12 13 12 10 8 7 7 6 5 4 5 8 11 12 13 15 18 18 18 19 17 18 19 21
15 15 16 16 16 16 15 16 16 13 11 10 9 8 7 5 3 5 7 9 10 13 15 16 17 16 16 18 19 20 21 22
16 15 15 14 14 15 15 13 12 11 10 8 7 6 3 2 3 5 7 9 11 13 14 15 15 18 19 20 21 22 23 25
Wind_Direction
196 200 203 200 199 200 202 206 208 213 214 214 211 198 174 168 166 161 144 133 126 152 158 156 150 145 130 107 80 56 35 27
188 196 201 195 191 194 198 205 206 207 208 206 187 170 162 155 151 139 130 134 143 156 158 152 145 137 117 98 76 52 30 13
186 194 193 188 187 190 191 196 203 193 179 165 155 153 149 142 139 134 145 151 156 158 158 149 139 130 122 97 61 32 12 0
178 183 182 179 177 178 186 185 175 162 160 152 153 146 143 144 136 144 162 157 155 159 152 143 140 140 116 75 28 3 357 354
168 176 175 171 171 167 159 162 153 153 149 148 144 138 139 138 145 157 155 154 156 152 149 141 144 130 70 6 353 355 346 338
139 156 157 155 151 149 150 149 143 146 147 141 144 144 134 148 155 154 155 156 154 148 150 154 146 127 333 346 351 339 330 325
137 142 145 141 146 140 140 140 141 142 139 144 145 139 154 157 157 155 153 151 151 154 160 159 186 317 333 328 327 321 316 315
131 134 135 139 137 133 137 138 139 146 148 143 144 155 157 157 154 151 149 151 155 164 185 229 279 310 317 315 310 305 316 321
132 134 136 136 135 137 143 146 147 145 146 150 152 157 155 154 151 151 148 153 163 181 231 282 310 316 315 304 304 316 316 310
125 129 137 145 144 149 147 147 147 148 149 150 155 155 152 152 150 147 151 155 184 232 278 301 304 307 305 317 318 313 310 308
140 139 142 141 143 144 145 147 148 149 151 152 152 154 150 146 145 151 154 176 232 273 295 307 301 305 315 321 311 303 308 320
132 134 136 141 145 143 145 147 147 150 153 153 152 151 146 145 146 156 161 199 275 292 298 303 307 313 310 306 311 321 317 317
140 138 138 144 146 143 144 150 154 154 155 154 154 151 142 138 138 143 141 256 284 291 299 308 311 306 306 319 325 319 316 314
140 147 145 146 152 150 154 157 152 159 157 154 152 151 138 144 274 181 243 270 286 302 304 304 308 316 320 322 322 317 312 311
126 142 146 149 149 161 161 165 170 160 152 155 158 167 190 217 215 178 245 272 278 292 301 313 321 323 321 320 323 321 318 317
117 133 141 141 147 153 163 169 167 173 177 183 186 194 208 193 195 229 255 269 291 305 318 321 322 320 321 323 321 317 315 311
112 125 131 134 140 145 154 152 158 159 162 172 171 182 169 199 226 239 262 291 316 325 322 321 321 326 325 320 314 310 312 316
108 120 124 132 138 136 137 138 142 149 151 157 176 188 198 207 229 264 305 325 325 319 324 333 331 323 315 310 315 319 320 319
117 121 127 135 137 137 141 146 152 159 166 188 189 189 198 208 260 309 317 314 318 329 332 325 319 315 317 323 325 323 321 320
126 126 134 140 140 143 145 148 161 173 182 185 187 193 202 267 300 303 310 324 328 322 319 320 323 329 329 327 326 326 325 323